Location: Akdamlar
(36.8729°N, 30.5187°E)
Time: 04:44:43
(UTC+00:00)

ISS - Visible Passes

Search period start: 25 June 2021 00:00
Search period end: 05 July 2021 00:00
Orbit: 419 x 422 km, 51.6° (Epoch: 24 June)

Date Brightness Start Highest point End Pass type
(mag) Time Alt. Az. Time Alt. Az. Time Alt. Az.
26 Jun -2.8 01:26:28 18° SSW 01:28:30 39° SE 01:31:41 10° ENE visible
27 Jun -2.0 00:40:58 21° SE 00:41:14 22° SE 00:43:53 10° ENE visible
28 Jun -3.5 01:28:16 21° WSW 01:30:19 59° NW 01:33:38 10° NE visible
29 Jun -3.9 00:42:27 70° S 00:42:42 75° SE 00:46:03 10° NE visible
29 Jun -1.8 23:56:28 25° E 23:56:28 25° E 23:58:12 10° ENE visible
30 Jun -1.8 01:29:24 11° W 01:31:54 22° NNW 01:34:39 10° NNE visible
01 Jul -2.6 00:43:16 31° WNW 00:43:57 34° NW 00:47:04 10° NNE visible
01 Jul -2.3 23:56:59 38° NNE 23:56:59 38° NNE 23:59:17 10° NE visible
02 Jul -1.0 01:31:54 10° NW 01:33:18 12° NNW 01:34:42 10° N visible
02 Jul -0.9 23:10:32 15° NE 23:10:32 15° NE 23:11:15 10° NE visible
03 Jul -1.3 00:43:27 13° WNW 00:45:00 16° NNW 00:47:12 10° NNE visible
03 Jul -1.7 23:56:52 23° NNW 23:56:52 23° NNW 23:59:25 10° NNE visible
04 Jul -1.0 23:10:08 19° NNE 23:10:08 19° NNE 23:11:24 10° NE visible
